STARLINK-37154, 68316

Orbit data source: Space-Track

STARLINK-37154, 68316 is a payload satellite owned by SpaceX/Seattle (US) in SSO that was launched on Fri, 20 Mar 2026 UTC via an FALCON 9 launch vehicle from the Air Force Western Test Range (AFWTR). Payload-class satellites include a variety of spacecraft equipped with specific instruments for various scientific and technological missions. These include communications satellites like Starlink; space stations such as the ISS; scientific satellites like the Hubble; Earth observation satellites from companies like Planet Labs, Umbra, and HawkEye 360; GPS; miniature CubeSats for education and research; and military/defense satellites.

Loading next visibility...
Identifier
68316, 2026-057Y
Orbit
SSO
Country
Flag of USUS
Related business
Manufacturer
SpaceX/Seattle
Mission
Operational spacecraft
Bus & Motor
STARLINK V2MO, Unknown motor
Mass
575 kg wet, ~530 kg dry
Launch date (UTC)
2026-03-20 (3 months ago)
Launch vehicle
FALCON 9
Launch site
Air Force Western Test Range (AFWTR)
Object type
Payload
Rocket body
Debris
Shape & HBR
Unknown shape, 17.7 m
Radar Cross Section
Large (>1 m²)

Expand to show TLE details & history
Last TLE update: 17 hours ago

TLE from 17 hours ago
0 STARLINK-37154
1 68316U 26057Y   26171.25002315  .00085250  00000-0  26181-2 0  9999
2 68316  97.2851 297.8940 0001519  73.2599 233.7176 15.33385951  5948
Epoch: 2026-06-20T06:00Z
TLE epoch observation values (Epoch: 2026-06-20T06:00:02.000Z)
Latitude
-52.67715°
Longitude
-50.98288°
Altitude
486.847 km
Speed
7.62 km/s
True Right ascension
20h 29m 58s
True Declination
-52° 30' 17"
Sunlit
Object was in full shadow at epoch
Visualization orbit readout
Latitude
Unknown
Longitude
Unknown
Altitude
Unknown
Speed
Unknown
Apparent Right ascension
Unknown
Apparent Declination
Unknown
Sunlit
N/A
Visualization observer readout
Local Sidereal Time
10:18:53
Azimuth
Unknown
Elevation
Unknown
Doppler factor
Unknown
Orbital elements
Apogee altitude
463.701 km
Perigee altitude
461.623 km
Semi-major axis
6,840.799 km
Eccentricity
0.00015
Inclination
97.2851°
RAAN
297.894°
Arg. of periapsis
73.2599°
True anomaly
233.70357°
Mean anomaly
233.7176°
Eccentric anomaly
233.71058°
Mean motion
3.83604 °/min
Orbital period
93.85 mins
BSTAR
0.0026181
Loading maneuver chart data...
Computing Atmospheric mass density...
Loading historical data...
Loading historical data...
Loading historical data...
Loading historical data...
Loading historical data...
Loading historical data...
Loading historical data...

Documentation

Showing up to 5 results
|